Вернуться в каталог

CZ-6A DEB

АктивенPO
NORAD 60874·DEBRIS·🇨🇳 China

Запущен Aug 6, 2024 с Taiyuan Satellite Launch Center

Loading…

Ближайшие Пролёты (ближайшие 24 часа)

TLE

СвежийSource: Space-Track

Эпоха: Sep 14, 2026, 10:30 UTC

1 60874U 24140KD  26257.43750489  .00000895  00000-0  20158-3 0  9999
2 60874  88.8778 248.5589 0099353 326.1061  33.3822 14.52545282110317

Отслеживайте CZ-6A DEB в реальном времени с AllMySat

Download on the App Store